Miscellaneous Local Product
Issued by NWS Hastings, NE

Home | Current Version | Previous Version | Graphics & Text | Print | Product List | Glossary On
Versions: 1 2 3 4 5 6 7 8 9 10 11 12 13 14 15 16 17 18 19 20 21 22 23 24 25 26 27 28 29 30 31 32 33 34 35 36 37 38 39 40 41 42 43 44 45 46 47 48 49 50
606
AXUS43 KGID 252102
MISGRI

GID CWA HOURLY WEATHER ROUNDUP
NATIONAL WEATHER SERVICE HASTINGS NE
400 PM CDT TUE APR 25 2017

NOTE: "FAIR" INDICATES FEW OR NO CLOUDS BELOW 12,000 FEET WITH NO
SIGNIFICANT WEATHER AND/OR OBSTRUCTIONS TO VISIBILITY.

...SOUTH CENTRAL NEBRASKA...

CITY           SKY/WX    TMP DP  RH WIND       PRES   REMARKS
GRAND ISLAND   CLOUDY    42  39  89 N17       29.61R
HASTINGS       CLOUDY    44  39  82 N18       29.59S
KEARNEY        CLOUDY    43  37  81 N20       29.60S
ORD            CLOUDY    39  35  86 N18G25    29.63R WCI  30
YORK           CLOUDY    43  39  87 N16G26    29.57R
AURORA         CLOUDY    42  38  86 N17       29.59R
LEXINGTON      CLOUDY    45  40  81 N15G21    29.62R
HOLDREGE       CLOUDY    44  40  87 N16       29.60R
HEBRON         CLOUDY    48  39  70 N14G22    29.54R

...NEBRASKA PANHANDLE...

CITY           SKY/WX    TMP DP  RH WIND       PRES   REMARKS
CHADRON        LGT SNOW  35  31  85 N21G26    29.75R FOG     WCI  24
ALLIANCE       CLOUDY    39  33  79 NE18      29.66R WCI  30
SCOTTSBLUFF    CLOUDY    42  35  76 NE17      29.67R
SIDNEY         MOSUNNY   51  42  71 NE22G31   29.59R

...WESTERN AND NORTH CENTRAL NEBRASKA...

CITY           SKY/WX    TMP DP  RH WIND       PRES   REMARKS
VALENTINE      CLOUDY    37  30  75 N17       29.72R WCI  27
AINSWORTH      CLOUDY    35  34  96 N21G29    29.69R WCI  23
ONEILL         CLOUDY    39  35  85 N20       29.65S WCI  29
BROKEN BOW     CLOUDY    40  37  89 N20       29.64R WCI  30
IMPERIAL       PTSUNNY   53  43  68 NE10      29.59R
NORTH PLATTE   CLOUDY    46  39  76 N12G22    29.63R
MCCOOK         CLOUDY    52  43  71 N10       29.59S

...EASTERN NEBRASKA...

CITY           SKY/WX    TMP DP  RH WIND       PRES   REMARKS
NORFOLK        CLOUDY    41  37  86 N16       29.58S
SO SIOUX CITY  CLOUDY    44  42  93 N14       29.58R
TEKAMAH        CLOUDY    46  40  79 N17       29.55R
COLUMBUS       CLOUDY    43  36  75 N14       29.58R
ALBION         CLOUDY    41  37  86 N13G21    29.61S
OMAHA EPPLEY   CLOUDY    51  43  74 N16G25    29.51R
OFFUTT AFB     CLOUDY    51  44  75 NW12G17   29.50R
MILLARD        CLOUDY    51  45  78 NW9G17    29.52R
LINCOLN        CLOUDY    49  41  74 N18       29.54R
NEBRASKA CITY  CLOUDY    54  42  64 N16       29.48R
BEATRICE       CLOUDY    52  44  72 N16       29.51R
FALLS CITY     CLOUDY    60  48  64 NW13G21   29.43R

...NORTHERN KANSAS...

CITY           SKY/WX    TMP DP  RH WIND       PRES   REMARKS
GOODLAND       MOSUNNY   61  41  47 N16       29.54S
HILL CITY      CLOUDY    58  44  60 N16       29.56R
NORTON         CLOUDY    48  37  66 N13       29.58R
PHILLIPSBURG   PTSUNNY   54  43  66 N14G20    29.56S
SMITH CENTER   CLOUDY    50  39  66 N18       29.55S
HAYS           CLOUDY    56  44  64 N14       29.54R
RUSSELL        CLOUDY    54  43  66 N15       29.52S
CONCORDIA      CLOUDY    51  44  77 N16       29.51R
SALINA         CLOUDY    59  47  64 NW16      29.49R HAZE
TOPEKA         CLOUDY    72  56  57 CALM      29.40S



USA.gov is the U.S. government's official web portal to all federal, state and local government web resources and services.